Location: Narragansett
(41.4496°N, 71.4488°W)
Time: 17:18:18
(UTC+00:00)

Nauka - Pass Details

Date: 24 September 2021
Orbit: 417 x 423 km, 51.6° (Epoch: 24 October)

Event Time Altitude Azimuth Distance (km) Brightness Sun altitude
Rises 23:30:59 0° 285° (WNW) 2,361 ? -10.5°
Reaches altitude 10° 23:33:38 10° 308° (NW) 1,499 ? -11.0°
Maximum altitude 23:35:52 16° 349° (N) 1,170 ? -11.4°
Drops below altitude 10° 23:38:07 10° 31° (NNE) 1,503 ? -11.9°
Enters shadow 23:39:10 - 43° (NE) 1,814 ? -12.1°
